Satellite: ASTRA 1B
Catalog number: 21139
Epoch time:      103041.00000000
Element set:     160 
Inclination:        0.0122 deg
RA of node:       319.8851 deg
Eccentricity:    0.0002995
Arg of perigee:    65.1991 deg
Mean anomaly:     133.7503 deg
Mean motion:    1.00273184 rev/day
Decay rate:    1.2900E-006 rev/day^2
Epoch rev:            3210
Checksum:              209

Satellite: METEOSAT 5 (MO
Catalog number: 21140
Epoch time:      103044.89050505
Element set:     718 
Inclination:        5.6184 deg
RA of node:        69.9805 deg
Eccentricity:    0.0002821
Arg of perigee:   148.7290 deg
Mean anomaly:     308.1660 deg
Mean motion:    1.00273059 rev/day
Decay rate:    2.3999E-007 rev/day^2
Epoch rev:            4600
Checksum:              288

Satellite: NOAA 12
Catalog number: 21263
Epoch time:      103045.90289589
Element set:     968 
Inclination:       98.6256 deg
RA of node:        35.5916 deg
Eccentricity:    0.0013612
Arg of perigee:    35.1864 deg
Mean anomaly:     325.0212 deg
Mean motion:   14.25078912 rev/day
Decay rate:    4.0300E-006 rev/day^2
Epoch rev:           61069
Checksum:              304

Satellite: OSCAR 22 (UoSA
Catalog number: 21575
Epoch time:      103045.19720912
Element set:     725 
Inclination:       98.1408 deg
RA of node:        37.5396 deg
Eccentricity:    0.0008019
Arg of perigee:   140.2206 deg
Mean anomaly:     219.9573 deg
Mean motion:   14.39151485 rev/day
Decay rate:    3.7199E-006 rev/day^2
Epoch rev:           60765
Checksum:              328

Satellite: METEOR 3-5
Catalog number: 21655
Epoch time:      103045.87562246
Element set:     499 
Inclination:       82.5540 deg
RA of node:        41.4674 deg
Eccentricity:    0.0012641
Arg of perigee:   204.3135 deg
Mean anomaly:     155.7393 deg
Mean motion:   13.16979796 rev/day
Decay rate:    5.1000E-007 rev/day^2
Epoch rev:           55299
Checksum:              326

Satellite: UARS
Catalog number: 21701
Epoch time:      103045.37218503
Element set:     824 
Inclination:       56.9822 deg
RA of node:        49.0376 deg
Eccentricity:    0.0004729
Arg of perigee:   115.4098 deg
Mean anomaly:     244.7460 deg
Mean motion:   15.02849894 rev/day
Decay rate:    9.2600E-006 rev/day^2
Epoch rev:           62508
Checksum:              414

Satellite: EUTELSAT 2-F3
Catalog number: 21803
Epoch time:      103042.92968172
Element set:     522 
Inclination:        2.5812 deg
RA of node:        89.1760 deg
Eccentricity:    0.0003183
Arg of perigee:   279.4172 deg
Mean anomaly:     129.1437 deg
Mean motion:    1.00276864 rev/day
Decay rate:    1.3600E-006 rev/day^2
Epoch rev:            3693
Checksum:              285

Satellite: INMARSAT 2-F3
Catalog number: 21814
Epoch time:      103043.55431152
Element set:     616 
Inclination:        1.7334 deg
RA of node:        57.8683 deg
Eccentricity:    0.0002689
Arg of perigee:   273.1812 deg
Mean anomaly:     228.6872 deg
Mean motion:    1.00275796 rev/day
Decay rate:    1.1900E-006 rev/day^2
Epoch rev:            4083
Checksum:              288

Satellite: INMARSAT 2-F4
Catalog number: 21940
Epoch time:      103044.69223701
Element set:     571 
Inclination:        2.3861 deg
RA of node:        19.3937 deg
Eccentricity:    0.0002023
Arg of perigee:   315.0988 deg
Mean anomaly:     166.9456 deg
Mean motion:    1.00266626 rev/day
Decay rate:   -3.4600E-006 rev/day^2
Epoch rev:            3963
Checksum:              286

Satellite: METEOR 2-21
Catalog number: 22782
Epoch time:      103046.06325973
Element set:     518 
Inclination:       82.5460 deg
RA of node:       217.6723 deg
Eccentricity:    0.0022213
Arg of perigee:   359.4531 deg
Mean anomaly:       0.6613 deg
Mean motion:   13.83532039 rev/day
Decay rate:    5.5999E-007 rev/day^2
Epoch rev:           47760
Checksum:              311

Satellite: KITSAT B
Catalog number: 22825
Epoch time:      103045.55121385
Element set:     486 
Inclination:       98.2746 deg
RA of node:        75.4523 deg
Eccentricity:    0.0007514
Arg of perigee:   272.1556 deg
Mean anomaly:      87.8769 deg
Mean motion:   14.28941904 rev/day
Decay rate:    1.7200E-006 rev/day^2
Epoch rev:           48930
Checksum:              324

Satellite: POSAT 1
Catalog number: 22826
Epoch time:      103045.16204965
Element set:     308 
Inclination:       98.2765 deg
RA of node:        76.1977 deg
Eccentricity:    0.0008197
Arg of perigee:   275.7746 deg
Mean anomaly:      84.2500 deg
Mean motion:   14.29164345 rev/day
Decay rate:    1.7500E-006 rev/day^2
Epoch rev:           48929
Checksum:              439

Satellite: ITAMSAT
Catalog number: 22828
Epoch time:      103045.63338621
Element set:     425 
Inclination:       98.2715 deg
RA of node:        76.9077 deg
Eccentricity:    0.0009094
Arg of perigee:   248.8802 deg
Mean anomaly:     111.1409 deg
Mean motion:   14.29506703 rev/day
Decay rate:    1.3699E-006 rev/day^2
Epoch rev:           45756
Checksum:              323

Satellite: EYESAT A
Catalog number: 22829
Epoch time:      103045.64329356
Element set:     450 
Inclination:       98.2730 deg
RA of node:        77.5211 deg
Eccentricity:    0.0008896
Arg of perigee:   249.8088 deg
Mean anomaly:     110.2137 deg
Mean motion:   14.29766269 rev/day
Decay rate:    2.4099E-006 rev/day^2
Epoch rev:           48949
Checksum:              346

Satellite: METEOSAT 6
Catalog number: 22912
Epoch time:      103041.98342015
Element set:     675 
Inclination:        2.6574 deg
RA of node:        82.5051 deg
Eccentricity:    0.0000882
Arg of perigee:   234.1423 deg
Mean anomaly:     187.7120 deg
Mean motion:    1.00280377 rev/day
Decay rate:    7.4000E-007 rev/day^2
Epoch rev:            3222
Checksum:              253

Satellite: GOES 8
Catalog number: 23051
Epoch time:      103043.39643089
Element set:     602 
Inclination:        0.2821 deg
RA of node:       103.2549 deg
Eccentricity:    0.0000983
Arg of perigee:   302.7965 deg
Mean anomaly:     163.7640 deg
Mean motion:    1.00279312 rev/day
Decay rate:   -2.4200E-006 rev/day^2
Epoch rev:            3974
Checksum:              384

Satellite: ASTRA 1D
Catalog number: 23331
Epoch time:      103042.01107640
Element set:     814 
Inclination:        0.0641 deg
RA of node:       227.0953 deg
Eccentricity:    0.0003407
Arg of perigee:   116.2764 deg
Mean anomaly:     185.4062 deg
Mean motion:    1.00272529 rev/day
Decay rate:    1.4900E-006 rev/day^2
Epoch rev:            3079
Checksum:              236

Satellite: RADIO ROSTO
Catalog number: 23439
Epoch time:      103043.97207093
Element set:     684 
Inclination:       64.8157 deg
RA of node:        50.5320 deg
Eccentricity:    0.0146914
Arg of perigee:   116.2908 deg
Mean anomaly:     245.3192 deg
Mean motion:   11.27547725 rev/day
Decay rate:   -3.4999E-007 rev/day^2
Epoch rev:           33496
Checksum:              325

Satellite: NOAA 14
Catalog number: 23455
Epoch time:      103045.93437505
Element set:     522 
Inclination:       99.1881 deg
RA of node:        64.4076 deg
Eccentricity:    0.0008609
Arg of perigee:   238.1891 deg
Mean anomaly:     121.8445 deg
Mean motion:   14.13296164 rev/day
Decay rate:    1.9799E-006 rev/day^2
Epoch rev:           41896
Checksum:              340

Satellite: HIMAWARI 5 (GM
Catalog number: 23522
Epoch time:      103045.44586259
Element set:     100 
Inclination:        1.7616 deg
RA of node:        83.3473 deg
Eccentricity:    0.0000205
Arg of perigee:   326.3475 deg
Mean anomaly:      34.8582 deg
Mean motion:    1.00278978 rev/day
Decay rate:   -2.7700E-006 rev/day^2
Epoch rev:            2885
Checksum:              294

Satellite: HOT BIRD 1
Catalog number: 23537
Epoch time:      103044.99704955
Element set:     534 
Inclination:        0.0294 deg
RA of node:        58.1907 deg
Eccentricity:    0.0015353
Arg of perigee:   318.4019 deg
Mean anomaly:     138.8041 deg
Mean motion:    1.00273188 rev/day
Decay rate:    9.0999E-007 rev/day^2
Epoch rev:            2892
Checksum:              307

Satellite: GOES 9
Catalog number: 23581
Epoch time:      103044.38809957
Element set:     514 
Inclination:        0.2860 deg
RA of node:       277.7330 deg
Eccentricity:    0.0011864
Arg of perigee:   252.3085 deg
Mean anomaly:     320.0546 deg
Mean motion:    1.00055954 rev/day
Decay rate:    1.3799E-006 rev/day^2
Epoch rev:            2831
Checksum:              294

Satellite: INMARSAT 3-F1
Catalog number: 23839
Epoch time:      103042.62550253
Element set:     867 
Inclination:        0.0404 deg
RA of node:        13.8371 deg
Eccentricity:    0.0052309
Arg of perigee:   201.3941 deg
Mean anomaly:     215.7118 deg
Mean motion:    1.00276938 rev/day
Decay rate:    2.0999E-007 rev/day^2
Epoch rev:            2514
Checksum:              373

Satellite: ASTRA 1F
Catalog number: 23842
Epoch time:      103041.00000000
Element set:     559 
Inclination:        0.0122 deg
RA of node:       319.8851 deg
Eccentricity:    0.0002995
Arg of perigee:    65.1991 deg
Mean anomaly:     133.7951 deg
Mean motion:    1.00273184 rev/day
Decay rate:    1.3100E-006 rev/day^2
Epoch rev:            2503
Checksum:              228

Satellite: JAS 2
Catalog number: 24278
Epoch time:      103045.84364011
Element set:     560 
Inclination:       98.5331 deg
RA of node:       197.5680 deg
Eccentricity:    0.0350149
Arg of perigee:   226.0612 deg
Mean anomaly:     131.1156 deg
Mean motion:   13.52872359 rev/day
Decay rate:    4.1000E-007 rev/day^2
Epoch rev:           32080
Checksum:              365

